This is the latest recevied weather packets stored in our database for station/object KD4EG. If no packets are shown the sender has not sent any weather packets the latest 10 day(s).
| Time | Temp. | Humidity | Pressure | Rain* | Wind** | Luminosity | Snow |
|---|---|---|---|---|---|---|---|
| 1777322449 | 20.56° C | 47% | 1023.3 hPa | 0 mm | - | 422 W/m² | - |
| 1777322145 | 21.11° C | 46% | 1023.4 hPa | 0 mm | - | 442 W/m² | - |
| 1777321842 | 21.11° C | 46% | 1023.2 hPa | 0 mm | - | 421 W/m² | - |
| 1777321538 | 20.56° C | 48% | 1023.3 hPa | 0 mm | - | 391 W/m² | - |
| 1777321236 | 21.67° C | 45% | 1023.8 hPa | 0 mm | - | 467 W/m² | - |
| 1777320933 | 21.11° C | 47% | 1023.7 hPa | 0 mm | - | 513 W/m² | - |
| 1777320631 | 21.11° C | 46% | 1023.7 hPa | 0 mm | - | 509 W/m² | - |
| 1777320328 | 20.56° C | 47% | 1023.7 hPa | 0 mm | - | 530 W/m² | - |
| 1777320024 | 21.11° C | 48% | 1023.9 hPa | 0 mm | - | 491 W/m² | - |
| 1777319722 | 21.11° C | 45% | 1024 hPa | 0 mm | - | 480 W/m² | - |
| 1777319419 | 20.56° C | 44% | 1024 hPa | 0 mm | - | 457 W/m² | - |
| 1777319115 | 20.56° C | 46% | 1023.9 hPa | 0 mm | - | 419 W/m² | - |
| 1777318813 | 21.67° C | 46% | 1024 hPa | 0 mm | - | 365 W/m² | - |
| 1777318509 | 21.11° C | 45% | 1023.9 hPa | 0 mm | - | 422 W/m² | - |
| 1777318206 | 21.11° C | 44% | 1024.2 hPa | 0 mm | - | 572 W/m² | - |
| 1777317903 | 21.11° C | 45% | 1024.3 hPa | 0 mm | - | 608 W/m² | - |
| 1777317600 | 21.11° C | 45% | 1024.1 hPa | 0 mm | - | 651 W/m² | - |
| 1777317297 | 20.56° C | 45% | 1024.2 hPa | 0 mm | - | 663 W/m² | - |
| 1777316992 | 21.67° C | 46% | 1024.2 hPa | 0 mm | - | 640 W/m² | - |
| 1777316689 | 21.11° C | 45% | 1024.3 hPa | 0 mm | - | 632 W/m² | - |
| 1777316385 | 21.67° C | 44% | 1024.4 hPa | 0 mm | - | 645 W/m² | - |
| 1777316083 | 21.67° C | 44% | 1024.4 hPa | 0 mm | - | 642 W/m² | - |
| 1777315782 | 20.56° C | 45% | 1024.3 hPa | 0 mm | - | 655 W/m² | - |
| 1777315480 | 20.56° C | 46% | 1024.2 hPa | 0 mm | - | 624 W/m² | - |
| 1777315177 | 21.11° C | 46% | 1024.5 hPa | 0 mm | - | 609 W/m² | - |
* Rain latest hour (hover to see other rain measurements)
** Current wind speed in m/s (hover to see current wind gust speed)